• Join FlightAware (Why Join?)
  • Login
  • US Flag 
04:40AM EST


 

Airport Tracker/Info


-or-


 

Live Flight TrackerFlight Track Log ✈ EJA831 ✈ 09-Aug-2013 ✈ KEGE - KHND

Flight Track Log - Related Links

Times and Time Zones

All times are in EDT time to prevent confusion due to time zone crossing. See the EJA831 flight status page for this flight to view local times or setup timezone preferences in your user account.

Time Position Orientation Groundspeed Altitude Reporting Facility
EDT Latitude Longitude Course Direction KTS MPH feet Rate Location/Type
12:06PM 39.6386 -106.9397 237° Southwest 184 212 7,600  Level Denver Center
12:07PM 39.6006 -107.0011 231° Southwest 194 223 11,200 2,468 Climbing Denver Center
12:08PM 39.6497 -107.0614 317° Northwest 283 326 12,700 1,645 Climbing Denver Center
12:09PM 39.7253 -107.0744 352° North 323 372 14,600 2,323 Climbing Denver Center
12:10PM 39.7972 -107.1436 324° Northwest 333 383 17,500 2,565 Climbing Denver Center
12:11PM 39.9632 -106.4620 31° Northeast  Level FlightAware Approximate
12:11PM 39.7703 -107.2594 253° West 341 392 19,900  Level Denver Center
12:12PM 39.9680 -106.4972 237° Southwest  Level FlightAware Approximate
12:12PM 39.7381 -107.3464 244° Southwest 339 390 21,700  Level Denver Center
12:13PM 39.6831 -107.4925 244° Southwest 351 404 24,200 2,177 Climbing Denver Center
12:14PM 39.6422 -107.6022 244° Southwest 352 405 26,200 1,776 Climbing Denver Center
12:16PM 39.5925 -107.7339 244° Southwest 360 414 27,900 1,632 Climbing Denver Center
12:17PM 39.5494 -107.8486 244° Southwest 367 422 29,600 1,887 Climbing Denver Center
12:18PM 39.4989 -107.9808 244° Southwest 365 420 31,800 1,839 Climbing Denver Center
12:19PM 39.4569 -108.0922 244° Southwest 359 413 33,400 1,065 Climbing Denver Center
12:20PM 39.4050 -108.2256 243° Southwest 372 428 34,000 290 Climbing Denver Center
12:21PM 39.3556 -108.3497 243° Southwest 397 457 34,000  Level Denver Center
12:22PM 39.2975 -108.4994 243° Southwest 404 465 34,000  Level Denver Center
12:23PM 39.2458 -108.6289 243° Southwest 417 480 34,000  Level Denver Center
12:24PM 39.1956 -108.7533 242° Southwest 407 468 34,000  Level Denver Center
12:25PM 39.1375 -108.8969 243° Southwest 404 465 34,000  Level Denver Center
12:26PM 39.0878 -109.0217 243° Southwest 408 470 34,000  Level Denver Center
12:27PM 39.0272 -109.1708 242° Southwest 418 481 34,000  Level Denver Center
12:28PM 38.9767 -109.2964 243° Southwest 413 475 34,000  Level Denver Center
12:29PM 38.9178 -109.4422 243° Southwest 412 474 34,000  Level Denver Center
12:30PM 38.8661 -109.5667 242° Southwest 411 473 34,000  Level Denver Center
12:31PM 38.8058 -109.7097 242° Southwest 407 468 34,000  Level Denver Center
12:32PM 38.7464 -109.8550 242° Southwest 412 474 34,000  Level Denver Center
12:33PM 38.6858 -109.9997 242° Southwest 413 475 34,000  Level Denver Center
12:34PM 38.6331 -110.1236 241° Southwest 413 475 34,000  Level Denver Center
12:35PM 38.5542 -110.2528 232° Southwest 414 476 34,000  Level Denver Center
12:36PM 38.4889 -110.3647 233° Southwest 412 474 34,000  Level Denver Center
12:37PM 38.4561 -110.4219 234° Southwest 413 475 34,000  Level Salt Lake Center
12:38PM 38.3775 -110.5525 232° Southwest 415 478 34,000  Level Salt Lake Center
12:38PM 38.3431 -110.6092 232° Southwest 418 481 34,000  Level Denver Center
12:39PM 38.3106 -110.6650 233° Southwest 415 478 34,000  Level Salt Lake Center
12:40PM 38.2297 -110.7958 232° Southwest 420 483 34,000  Level Salt Lake Center
12:41PM 38.1606 -110.9069 232° Southwest 419 482 34,000  Level Salt Lake Center
12:42PM 38.0844 -111.0333 233° Southwest 417 480 34,000 -339 Level Salt Lake Center
12:43PM 38.0136 -111.1492 232° Southwest 416 479 33,300 -823 Descending Salt Lake Center
12:44PM 37.9422 -111.2639 232° Southwest 414 476 32,300 -968 Descending Salt Lake Center
12:45PM 37.8719 -111.3800 233° Southwest 417 480 31,300 -968 Descending Salt Lake Center
12:46PM 37.8006 -111.4953 232° Southwest 416 479 30,300 -497 Descending Salt Lake Center
12:48PM 37.6853 -111.6842 232° Southwest 424 488 30,000 -115 Descending Denver Center
12:49PM 37.6106 -111.8017 231° Southwest 429 494 30,000  Level Denver Center
12:50PM 37.4933 -111.9867 231° Southwest 421 484 30,000  Level Salt Lake Center
12:51PM 37.4214 -112.1025 232° Southwest 418 481 30,000  Level Salt Lake Center
12:52PM 37.3611 -112.1950 231° Southwest 427 491 30,000  Level Los Angeles Center
12:53PM 37.2881 -112.3117 232° Southwest 426 490 30,000  Level Los Angeles Center
12:54PM 37.2000 -112.4500 231° Southwest 421 484 30,000  Level Los Angeles Center
12:56PM 37.0533 -112.6808 232° Southwest 421 484 30,000  Level Los Angeles Center
12:57PM 36.9800 -112.7956 231° Southwest 420 483 30,000 -339 Level Los Angeles Center
12:58PM 36.9056 -112.9100 231° Southwest 422 486 29,300 -1,016 Descending Los Angeles Center
12:59PM 36.8328 -113.0239 231° Southwest 419 482 27,900 -1,536 Descending Los Angeles Center
01:01PM 36.7461 -113.1567 231° Southwest 412 474 26,100 -1,488 Descending Los Angeles Center
01:02PM 36.6764 -113.2625 231° Southwest 398 458 24,800 -1,306 Descending Los Angeles Center
01:03PM 36.6136 -113.3744 235° Southwest 394 453 23,400 -1,355 Descending Los Angeles Center
01:04PM 36.5767 -113.5025 250° West 393 452 22,000 -1,355 Descending Los Angeles Center
01:05PM 36.5375 -113.6289 249° West 392 451 20,600 -1,403 Descending Los Angeles Center
01:06PM 36.4933 -113.7686 249° West 383 441 19,100 -1,355 Descending Los Angeles Center
01:07PM 36.4547 -113.8897 248° West 378 435 17,800 -1,248 Descending Los Angeles Center
01:08PM 36.4178 -114.0075 249° West 370 426 16,500 -1,200 Descending Los Angeles Center
01:09PM 36.3819 -114.1217 249° West 360 414 15,300 -1,161 Descending Los Angeles Center
01:10PM 36.3486 -114.2303 249° West 343 395 14,100 -1,113 Descending Los Angeles Center
01:11PM 36.3175 -114.3250 248° West 302 348 13,000 -532 Descending Los Angeles Center
01:12PM 36.2486 -114.4094 225° Southwest 286 329 13,000  Level Los Angeles Center
01:13PM 36.1894 -114.4756 222° Southwest 285 328 13,000 -581 Level Los Angeles Center
01:14PM 36.1239 -114.5267 212° Southwest 278 320 11,800 -1,113 Descending Los Angeles Center
01:15PM 36.0578 -114.5731 210° Southwest 273 314 10,700 -816 Descending Los Angeles Center
01:16PM 35.9897 -114.6219 210° Southwest 277 319 10,100 -1,008 Descending Los Angeles Center
01:17PM 35.9283 -114.6783 217° Southwest 281 323 8,600 -1,016 Descending Los Angeles Center
01:18PM 35.8772 -114.7742 237° Southwest 281 323 8,000 -387 Descending Los Angeles Center
01:19PM 35.8333 -114.8533 236° Southwest 278 320 7,800 -484 Descending Los Angeles Center
01:20PM 35.7933 -114.9322 238° Southwest 274 315 7,000 -387 Descending Los Angeles Center
01:21PM 35.8025 -115.0300 277° West 283 326 7,000 -350 Level Los Angeles Center
01:22PM 35.8619 -115.0872 322° Northwest 268 308 6,300 -1,179 Descending Los Angeles Center
01:23PM 35.9256 -115.1114 343° North 261 300 4,800 -1,308 Descending Los Angeles Center
01:24PM 35.9842 -115.1133 358° North 139 160 3,400 -876 Descending Los Angeles Center
01:25PM 35.9975 -115.1331 310° West 156 180 2,800 -621 Descending Los Angeles Center
01:27PM 35.9667 -115.1333 338° Northwest  Level FlightAware Approximate
01:34PM 35.9729 -115.1344 338° Northwest  Level Estimated